GFSWCAN_prec_cthk_000.txt.gz
RH
95 83 71 61 58 60 60 62 60 57 55 51 47 43 41 41 45 46 46 45 46 48 49 54 56 58 56 56 57 50 43 42 41 44 44 43 49 44 41 39 45 47 57 59 59 62 62 53 59 67 73 81 82 84
98 97 84 71 62 59 58 60 60 59 58 53 50 49 46 42 42 45 49 46 46 48 47 48 51 52 50 52 51 46 42 39 38 41 43 45 45 50 50 47 37 48 46 52 54 52 54 62 63 68 76 82 85 88
99 99 91 84 67 60 57 58 59 59 58 57 56 53 49 45 44 45 48 47 46 47 49 47 46 42 41 43 42 43 44 44 42 40 42 44 47 45 49 46 38 38 38 51 52 45 50 59 70 75 80 85 89 87
98 99 96 89 79 70 62 56 57 58 59 58 57 55 52 47 45 45 47 47 49 50 51 52 49 47 44 43 42 41 43 42 45 42 43 44 45 41 49 43 48 42 42 42 46 46 56 68 75 82 83 88 90 88
96 97 97 93 89 80 69 61 56 55 54 54 53 52 52 50 47 47 47 48 51 55 56 53 50 50 48 49 50 47 47 46 48 50 49 48 47 48 52 56 51 40 43 50 55 59 63 73 83 86 88 89 87 84
85 90 95 96 93 87 81 75 68 62 56 53 52 51 51 51 50 49 54 51 53 54 57 57 57 54 53 53 54 53 53 54 56 57 57 55 51 52 60 58 41 43 44 48 54 64 72 83 86 84 81 80 78 73
59 74 81 89 93 94 92 87 83 82 73 62 57 54 53 52 53 57 58 58 55 58 63 65 65 62 61 63 64 63 63 67 67 66 65 63 57 61 68 62 46 49 51 59 66 78 83 81 82 82 79 73 70 67
44 43 53 68 80 87 90 91 89 88 86 78 69 64 61 58 57 58 60 61 70 74 72 75 75 70 67 70 75 76 73 71 69 67 67 67 66 69 70 52 50 51 59 71 79 82 83 83 83 82 75 69 63 54
39 42 44 48 57 74 84 89 93 92 92 92 86 80 77 73 69 65 66 67 70 76 80 78 76 79 76 77 82 84 84 82 78 75 71 70 69 66 51 50 52 69 77 82 83 85 85 82 80 74 65 55 52 50
28 33 39 42 41 47 70 80 87 95 97 96 95 88 84 81 75 75 82 80 81 78 75 73 74 78 76 81 83 84 83 83 78 70 70 68 59 54 54 60 74 79 84 87 86 81 83 82 74 61 51 51 50 47
29 29 30 37 39 36 40 61 78 91 97 99 96 93 90 88 93 91 93 94 86 78 73 70 69 72 76 78 82 82 81 82 81 75 80 75 67 63 69 81 83 86 89 88 84 84 82 70 58 53 50 49 47 43
36 34 32 31 35 38 35 44 63 85 97 99 98 98 100 100 99 99 97 94 86 82 76 76 74 77 82 85 88 89 93 94 90 87 90 81 72 76 79 81 84 86 87 85 80 74 67 59 54 50 48 43 40 36
37 40 38 35 36 40 49 41 46 68 92 97 99 99 99 98 99 98 94 85 82 79 75 76 81 86 90 93 97 98 99 98 95 93 87 82 85 85 85 86 87 84 79 77 70 64 58 51 49 47 42 34 35 35
36 40 41 40 40 39 41 51 55 55 69 92 98 98 98 98 98 98 94 88 86 84 86 89 90 96 97 98 99 98 98 97 97 95 90 95 91 92 91 89 86 80 77 66 65 57 53 51 43 34 33 36 35 31
34 41 43 44 44 42 43 47 51 56 63 74 94 98 97 97 98 97 97 98 96 94 94 97 97 98 97 99 98 98 97 97 96 97 98 93 90 89 88 87 84 75 70 61 56 53 46 36 34 35 34 33 31 31
28 37 46 48 48 48 47 46 50 58 60 65 73 85 95 96 97 98 98 98 98 98 98 98 98 98 98 98 97 97 97 96 98 97 92 88 86 85 81 75 70 64 58 56 51 42 37 37 35 31 29 29 31 33
21 38 45 48 51 52 53 54 69 69 61 63 71 72 78 92 96 97 97 97 97 97 98 97 97 98 97 98 97 97 97 96 93 90 86 82 78 74 70 63 59 58 54 48 40 37 34 31 31 30 29 31 37 43
31 34 43 51 53 54 57 60 63 69 68 67 70 71 76 78 81 87 91 92 92 94 95 96 92 95 95 95 91 93 88 83 81 79 74 68 65 65 63 59 52 48 42 38 34 32 31 30 32 33 38 45 49 57
37 41 47 56 56 56 57 61 65 65 64 68 73 76 74 77 82 82 84 89 91 91 92 92 92 90 87 81 81 79 77 74 72 71 69 65 60 55 49 43 39 36 34 35 34 33 34 37 40 44 49 54 61 67
38 41 49 58 60 64 67 66 67 75 79 76 74 78 78 76 76 77 80 84 86 86 87 89 90 86 81 76 71 67 66 63 62 60 58 53 46 46 44 41 39 39 37 36 37 40 44 46 48 53 62 67 68 69
43 40 43 57 66 69 70 68 72 75 75 82 84 82 80 77 78 80 80 80 80 80 80 73 71 69 67 63 59 57 56 56 54 50 46 45 45 44 42 42 42 44 44 45 46 45 49 54 54 51 55 66 69 72
47 50 51 64 74 76 79 78 80 82 86 91 91 87 86 83 80 79 78 74 73 68 65 63 60 59 58 56 54 52 51 48 45 44 44 45 45 46 47 48 46 47 49 54 59 59 57 59 63 64 67 68 74 78
51 59 71 71 85 87 93 94 90 89 89 92 90 89 81 78 77 73 70 63 60 54 54 54 54 52 51 55 55 52 48 46 46 48 50 51 53 53 55 62 67 68 65 60 62 68 68 70 68 65 66 72 78 82
74 88 98 97 97 98 93 95 94 90 88 91 89 88 85 78 69 67 61 58 57 56 54 52 51 52 54 53 52 60 61 60 58 60 63 66 66 63 65 64 63 69 75 72 72 70 67 67 70 69 71 76 82 87
98 97 98 98 97 96 93 91 90 91 85 83 86 83 79 72 68 64 61 65 65 60 56 55 58 60 61 66 70 74 70 67 67 66 64 65 63 59 57 53 51 55 60 57 60 67 76 76 77 78 80 84 91 94
98 98 98 95 96 97 94 94 91 87 84 81 80 80 74 72 68 63 62 66 62 57 56 58 62 67 72 69 69 69 69 66 65 61 59 57 51 47 45 46 45 46 48 55 60 65 71 78 81 83 87 92 96 98
97 97 97 98 99 97 97 96 93 87 83 81 80 78 73 67 62 64 67 64 61 60 61 64 66 68 70 71 71 70 65 56 47 40 39 43 49 50 52 53 54 54 54 55 59 68 77 80 82 88 92 95 97 98
95 95 95 95 92 86 85 85 83 78 73 71 68 65 61 60 66 68 67 65 65 68 72 73 72 73 72 68 58 48 43 42 44 47 50 57 57 54 58 61 63 63 64 64 65 71 77 79 83 89 93 95 96 97
86 85 81 79 74 69 66 64 62 61 60 57 60 63 67 66 70 72 75 76 78 80 82 81 75 70 62 55 53 50 51 52 53 52 52 53 54 56 59 61 62 64 65 68 73 77 78 79 81 88 92 95 96 96
70 69 67 63 61 63 63 61 63 63 64 68 73 72 73 74 77 79 81 84 85 83 79 73 64 58 55 55 59 62 61 60 60 59 60 60 60 59 60 62 65 69 71 73 77 80 83 85 86 88 91 95 99 99
67 66 66 67 68 70 71 69 70 72 76 79 83 86 85 85 81 78 77 74 70 62 55 54 56 59 64 66 66 65 64 62 62 61 60 60 60 61 63 65 67 72 75 76 80 84 86 89 91 93 93 95 98 99
79 81 82 82 85 86 84 82 80 78 77 74 73 68 66 63 58 53 52 53 56 59 62 65 67 68 66 65 63 59 55 50 45 44 44 45 46 50 55 61 68 73 76 78 80 84 87 90 92 95 95 97 99 99
57 57 57 57 58 59 61 54 56 56 56 57 61 56 54 55 57 59 60 62 66 68 68 65 61 58 55 49 41 40 40 40 39 41 42 43 44 46 48 53 61 70 78 81 82 86 89 91 92 95 98 99 99 96

GFSWCAN_prec_cthk_003.txt.gz
RH
83 70 64 67 65 61 63 61 57 56 56 54 52 50 49 50 49 46 42 42 41 41 43 47 49 45 50 51 56 53 54 51 51 48 45 43 46 43 43 42 45 44 51 52 54 57 54 37 41 47 48 56 62 68
90 81 68 61 61 61 62 62 60 56 55 55 53 50 47 47 49 50 48 45 45 42 42 51 54 55 54 54 52 54 48 50 47 49 45 45 44 47 47 44 37 45 42 49 47 46 38 45 48 50 51 61 69 75
97 90 81 67 63 66 63 62 63 60 56 56 54 51 47 45 45 46 49 48 46 45 46 49 53 51 56 57 52 49 50 49 45 41 44 45 46 44 47 46 38 37 41 48 50 47 49 54 51 53 60 66 71 75
98 97 90 75 64 65 67 64 63 62 60 58 56 51 49 50 48 46 46 47 48 46 48 48 46 46 46 48 49 48 47 49 48 47 49 46 44 41 44 37 41 34 38 40 44 46 50 52 53 61 67 72 81 83
98 98 96 87 75 63 60 65 64 63 62 60 59 56 55 55 53 49 48 47 50 50 51 50 47 46 46 46 48 49 49 50 51 52 53 51 47 49 51 51 47 39 43 50 48 49 52 56 64 69 74 79 80 84
98 98 98 96 86 77 68 64 62 63 63 61 60 59 59 58 56 52 51 48 50 51 51 56 55 52 51 50 51 51 52 52 52 52 54 53 54 55 60 61 46 46 47 49 54 56 55 63 70 78 83 80 79 80
85 93 97 97 94 84 73 66 64 62 60 57 56 57 56 55 54 55 56 56 52 54 56 60 56 53 54 56 56 59 60 61 60 64 64 65 64 65 65 60 50 55 57 56 53 55 61 72 81 80 80 80 80 75
62 71 83 90 96 93 85 79 74 69 62 56 53 53 52 52 53 56 57 56 56 56 57 62 64 58 60 62 71 74 72 77 83 84 80 74 68 69 68 55 54 52 52 53 55 61 76 80 86 86 84 80 78 71
50 49 50 65 79 89 92 91 85 81 75 70 68 68 64 57 55 55 56 57 57 60 62 66 64 68 69 73 77 78 82 86 85 82 81 81 76 73 58 56 54 56 58 62 71 80 88 91 86 84 81 79 73 56
46 50 48 45 49 67 84 91 93 94 91 88 85 84 79 73 69 66 67 67 66 65 65 62 63 68 68 75 79 83 85 86 84 78 78 75 65 55 58 64 64 66 70 78 87 89 89 87 82 83 79 69 58 53
34 39 44 45 42 42 56 77 85 93 97 97 94 93 94 91 91 88 85 82 79 73 68 66 65 67 70 75 81 86 85 82 81 74 80 70 57 57 61 68 75 82 89 91 92 91 89 85 84 78 65 59 52 48
30 28 34 37 38 39 38 53 70 81 88 90 94 98 99 99 99 98 90 85 82 80 77 75 75 80 85 87 92 95 97 94 90 88 90 77 71 67 71 77 82 86 89 94 93 87 88 86 71 62 58 52 49 42
36 34 31 31 32 38 44 46 51 65 80 85 88 93 96 99 99 97 87 87 85 82 81 82 85 91 93 94 97 98 99 97 93 93 89 84 80 83 87 88 87 87 86 86 88 85 76 64 63 57 53 46 40 38
34 34 36 37 35 34 37 42 47 52 54 72 88 90 92 97 96 96 92 89 89 90 90 91 92 96 97 99 99 98 98 98 97 93 88 91 94 96 91 88 87 88 89 86 80 71 69 60 56 50 44 42 40 37
33 36 37 39 40 40 39 40 40 42 54 58 64 82 89 90 95 95 95 95 96 96 96 95 95 97 97 99 98 98 98 97 97 98 98 98 97 97 93 89 88 88 86 80 70 65 62 56 48 43 39 36 32 29
32 38 40 41 43 40 39 38 37 39 47 53 62 69 71 81 94 96 95 96 97 97 99 98 98 98 98 98 98 98 98 98 98 98 95 97 97 94 93 91 89 83 72 68 65 62 53 43 38 35 31 29 30 33
26 35 38 41 42 42 40 40 45 49 48 52 56 58 63 69 72 77 85 93 95 97 97 97 97 97 98 98 98 98 98 98 96 94 92 91 88 85 79 75 71 68 65 59 51 43 40 37 34 30 27 29 34 40
32 33 34 39 40 41 42 42 46 55 55 58 61 64 65 65 70 72 73 75 81 89 93 94 93 97 97 97 98 97 96 89 89 89 85 80 75 73 72 68 61 54 46 42 40 37 35 32 30 30 34 37 40 46
32 34 36 39 44 45 45 46 48 47 49 51 59 64 66 67 69 71 72 73 75 76 77 82 92 95 96 92 91 89 86 83 82 79 78 76 72 66 58 50 46 44 41 38 36 35 34 36 40 43 45 49 53 56
31 32 35 43 43 43 51 52 50 51 50 53 55 58 60 65 68 71 73 76 76 76 75 78 88 88 86 84 78 76 75 72 69 65 61 57 51 47 44 41 41 41 42 42 40 41 42 43 47 51 55 60 66 67
35 36 37 40 47 52 56 59 60 59 57 58 61 66 69 72 72 75 74 75 76 73 80 77 72 73 74 71 66 60 56 55 53 51 48 43 42 43 43 44 45 44 45 48 51 52 55 55 53 55 66 71 69 65
40 42 45 40 42 57 64 62 63 62 62 64 66 69 71 76 76 77 77 74 76 77 72 72 72 68 62 61 59 54 50 46 45 43 44 47 48 47 48 51 55 56 59 60 61 60 60 64 70 73 77 73 65 61
44 47 48 48 50 54 68 71 68 68 71 76 80 81 83 87 86 84 78 74 72 66 66 62 61 58 57 55 52 51 44 43 49 53 56 56 56 57 59 62 66 66 60 57 62 62 64 69 71 69 66 65 66 68
55 57 52 55 63 63 73 74 82 85 85 88 90 88 89 86 82 82 78 76 74 67 61 58 56 54 52 52 47 49 53 58 61 65 64 63 62 60 62 61 60 60 53 46 45 46 48 49 55 62 65 66 68 72
74 70 65 75 91 93 77 72 82 95 96 96 95 90 90 88 88 86 80 76 71 66 63 62 58 55 57 61 60 60 62 64 67 71 70 67 61 55 48 44 45 44 45 47 48 49 50 52 57 59 61 67 71 78
98 89 82 86 96 98 91 93 94 96 96 97 96 94 87 85 83 79 77 79 74 69 60 61 63 61 61 63 66 66 68 68 67 65 63 53 46 47 48 47 46 47 52 54 55 56 58 59 58 59 63 71 77 79
97 94 96 95 98 98 98 99 98 97 97 96 95 93 90 84 80 82 83 80 76 70 63 60 62 64 66 68 68 68 69 68 60 51 51 54 54 53 52 52 52 54 56 57 60 63 64 66 67 68 71 73 77 78
96 96 98 98 98 98 98 98 98 97 95 91 89 91 88 84 86 81 75 73 71 68 65 68 71 74 75 75 74 72 67 60 56 55 59 56 55 57 57 58 60 60 61 63 65 68 70 72 74 75 77 78 80 82
98 98 97 97 94 91 90 90 89 87 85 81 77 76 73 70 69 69 72 75 76 77 76 77 80 82 81 76 66 57 52 50 51 54 57 58 57 58 59 58 59 60 61 64 68 72 73 77 79 78 79 85 84 86
87 87 85 83 85 86 81 79 77 74 70 69 70 72 74 75 76 78 79 82 85 89 88 82 74 68 59 55 56 55 54 56 57 57 55 53 50 47 43 42 43 46 50 56 61 67 71 75 79 80 82 85 88 89
74 73 72 72 75 73 71 69 68 67 68 72 74 75 77 80 82 84 86 83 78 71 62 55 53 55 56 58 61 61 60 57 52 47 42 39 37 37 38 39 41 44 48 53 57 61 68 75 81 82 84 88 90 92
79 80 80 81 80 80 77 73 72 71 73 73 73 72 74 72 69 65 62 57 54 55 56 58 60 61 60 59 56 51 43 37 35 37 36 36 37 38 39 41 44 48 53 57 62 65 70 76 82 88 92 92 93 94
51 48 47 49 50 51 51 43 44 47 49 52 54 55 56 58 60 59 58 57 59 59 58 59 56 51 44 37 32 32 34 36 38 38 40 42 44 44 44 45 49 53 57 61 64 69 74 77 83 88 91 95 98 99

GFSWCAN_prec_cthk_006.txt.gz
RH
93 84 77 75 76 75 73 66 64 61 56 53 52 51 50 49 47 44 38 39 39 39 42 40 40 41 41 41 47 47 50 50 52 49 49 51 52 46 43 40 40 41 47 51 54 54 48 31 38 41 36 40 46 52
92 83 75 76 75 74 73 68 64 65 62 56 51 49 50 52 50 43 40 40 38 38 44 45 44 44 44 45 45 50 45 46 46 50 53 55 53 54 48 46 39 40 36 43 41 40 32 35 37 39 43 46 52 58
86 79 70 71 73 72 71 69 64 62 63 61 56 52 50 49 51 50 46 45 42 40 43 48 50 49 47 46 47 46 49 49 48 45 49 51 50 51 52 50 43 37 38 43 44 37 41 43 45 52 54 56 62 65
85 76 70 67 68 70 70 69 67 62 60 59 57 54 50 48 49 51 50 48 46 45 45 51 53 52 51 49 48 49 50 52 50 48 51 50 48 46 47 43 45 37 42 42 45 46 51 51 52 53 58 63 66 68
90 80 75 73 72 67 66 67 67 64 59 58 58 56 52 49 47 47 47 47 47 45 45 47 45 45 43 44 45 46 48 50 51 53 57 57 54 55 54 53 48 40 44 49 47 47 47 47 52 58 62 64 67 72
97 92 83 72 68 67 67 65 65 64 62 59 58 58 55 51 50 52 50 49 48 48 46 49 49 48 48 47 46 47 49 50 53 52 55 54 52 52 59 57 47 50 51 52 50 53 55 57 57 59 62 66 70 82
98 98 96 87 76 68 67 68 67 62 62 62 60 59 58 57 56 56 55 55 51 51 50 55 52 50 51 52 52 55 57 58 64 67 67 67 70 68 65 64 55 54 54 54 54 53 55 56 59 65 70 72 80 86
97 97 95 91 87 76 69 64 64 68 66 64 62 62 62 61 60 60 60 58 54 53 52 58 59 52 52 55 58 61 66 71 77 79 79 80 82 82 75 61 60 58 58 56 56 58 61 69 73 80 83 85 86 85
74 83 94 96 95 89 79 76 68 66 67 66 67 69 67 64 61 61 60 57 55 55 55 56 54 54 52 57 61 67 72 73 75 79 82 85 81 76 61 60 59 58 56 58 69 74 76 80 85 90 93 92 89 86
53 55 61 77 88 93 90 84 75 72 69 67 64 63 62 59 58 57 57 54 54 57 60 57 53 57 57 60 63 67 71 75 76 73 78 76 67 56 54 59 61 63 64 69 81 83 82 88 95 95 89 85 87 82
52 50 48 49 53 73 86 91 90 86 82 78 76 74 70 69 70 72 72 66 63 62 60 63 64 67 66 67 70 76 81 84 81 76 85 76 67 63 63 64 69 70 76 82 83 88 92 97 93 88 92 88 73 61
44 45 48 47 48 49 60 81 91 93 93 90 91 93 94 92 89 89 86 82 79 80 79 78 78 78 80 82 87 90 92 94 90 85 88 78 70 72 72 75 77 79 82 87 88 96 96 89 95 86 73 62 62 57
41 39 40 44 49 50 50 56 70 88 92 93 97 98 98 98 98 93 90 87 87 84 84 84 86 91 91 96 98 99 98 95 93 92 89 83 84 82 80 82 83 85 89 92 91 95 92 83 74 69 67 61 56 49
38 41 43 38 43 49 50 50 52 61 77 88 91 91 91 93 93 92 89 88 90 88 89 91 92 93 95 99 99 99 99 98 97 92 88 92 94 93 95 93 92 92 92 95 88 83 79 74 68 63 59 51 44 41
33 34 36 37 35 39 41 43 46 47 49 61 77 90 92 91 90 88 88 91 92 92 93 92 91 92 94 97 98 98 98 97 96 96 94 96 96 97 94 87 87 88 87 84 82 78 72 67 60 53 47 42 38 35
32 32 33 34 33 32 32 31 32 39 45 50 54 63 71 79 87 90 88 87 88 88 90 92 95 98 98 97 97 98 98 98 98 97 98 99 97 96 96 94 94 94 90 86 79 72 65 56 48 43 39 37 37 33
28 31 32 33 33 32 31 32 32 33 38 43 48 50 55 59 65 68 73 78 81 89 94 96 97 95 97 98 98 98 98 97 97 97 95 95 95 96 93 88 84 82 78 72 65 57 48 44 42 39 36 35 36 41
25 28 32 33 33 32 31 30 37 40 43 48 49 53 54 55 57 60 63 65 69 74 76 79 84 91 95 96 97 97 98 95 96 96 96 94 89 86 83 80 73 66 59 53 48 45 43 41 41 40 38 38 42 45
25 27 28 29 31 34 33 36 37 39 42 43 47 52 53 55 57 59 62 64 64 65 66 70 78 81 86 84 85 91 90 90 90 86 83 80 78 73 67 60 54 49 46 44 45 45 44 45 44 45 47 48 47 48
24 24 28 31 30 31 39 42 41 43 42 43 44 46 47 49 54 56 61 64 64 62 67 70 72 75 76 74 69 74 76 75 71 69 65 62 57 50 46 43 43 44 46 45 45 47 49 50 55 57 55 56 56 57
25 26 25 28 31 35 40 44 46 48 47 47 47 52 54 57 61 61 62 66 66 69 74 75 77 75 73 72 75 71 66 64 62 59 56 50 44 44 45 46 47 48 49 51 53 53 56 57 56 55 56 58 61 64
31 31 30 31 30 32 39 45 51 51 52 53 53 54 55 57 60 63 65 66 67 72 74 77 79 80 79 77 73 71 65 57 45 41 43 46 48 48 48 50 51 54 58 59 58 56 53 52 46 47 48 55 57 56
33 34 35 35 37 38 42 45 58 59 60 60 63 62 63 64 66 67 67 68 70 74 77 76 74 74 74 70 66 58 53 47 48 48 49 51 54 57 58 60 59 57 55 52 48 43 41 41 43 45 47 49 54 59
40 41 43 45 45 46 47 55 54 61 72 71 71 71 74 76 77 80 81 81 81 79 76 76 77 74 70 65 59 57 58 57 58 59 59 59 60 60 61 58 56 52 48 47 47 47 47 46 47 51 55 57 60 61
46 54 51 53 53 53 58 68 73 79 73 76 85 86 89 90 88 86 83 86 89 90 87 82 76 70 67 65 64 66 65 64 64 64 60 60 59 58 57 53 51 52 52 49 47 46 46 49 52 56 60 64 67 69
75 80 83 81 84 78 85 86 91 86 77 87 97 97 95 94 93 88 85 87 86 83 80 79 77 75 72 71 70 68 68 69 68 65 62 62 61 57 56 55 53 51 51 50 50 49 50 53 55 57 60 66 71 74
85 89 94 96 97 96 96 94 98 98 98 98 95 98 98 97 93 89 90 87 87 88 86 80 77 73 70 68 68 69 70 71 70 70 67 65 63 60 57 54 51 50 51 52 53 54 54 55 56 58 61 66 70 74
86 91 98 98 98 98 98 98 98 98 98 98 98 98 97 94 94 93 91 88 89 88 81 74 72 72 72 73 75 78 80 77 66 57 57 57 58 57 56 55 56 53 49 46 44 44 47 50 53 56 60 66 71 75
96 97 98 98 96 96 98 98 98 98 98 97 95 95 95 91 89 87 85 82 79 77 78 79 79 80 80 80 77 70 59 53 52 53 52 53 54 52 49 42 35 31 30 32 37 42 46 50 55 57 63 67 72 76
94 95 92 90 92 92 89 89 88 88 87 85 81 80 79 79 78 79 80 83 85 83 82 83 84 80 71 62 57 55 52 52 52 50 48 42 36 31 29 29 30 32 33 35 38 42 47 53 58 63 67 72 74 81
72 72 72 73 77 75 75 73 73 72 72 74 75 76 78 81 81 81 83 86 86 81 73 65 61 59 58 56 55 54 53 49 44 36 31 30 31 32 34 36 37 38 40 43 46 49 52 56 59 63 68 74 79 83
71 73 73 72 71 71 68 64 60 59 59 59 59 57 58 59 60 59 59 59 56 56 56 56 56 55 55 54 51 45 35 31 29 31 33 35 36 38 40 42 43 44 46 49 52 55 58 60 63 67 72 76 81 85
46 45 44 47 48 49 46 40 43 47 49 51 52 55 56 59 61 62 62 61 61 59 59 58 56 52 48 41 33 29 30 33 36 37 38 38 39 40 41 42 44 47 51 53 57 60 63 65 67 70 74 77 82 86

GFSWCAN_prec_cthk_009.txt.gz
RH
74 72 72 69 76 74 73 69 65 64 66 56 51 39 38 48 54 64 55 44 39 36 41 40 37 36 36 38 42 41 45 47 50 52 52 54 55 49 47 42 45 44 47 50 52 53 39 26 34 37 33 32 37 43
67 74 79 79 78 78 73 70 68 68 66 62 54 52 44 48 51 43 46 46 41 39 39 39 39 38 39 42 43 47 45 46 48 49 49 52 53 55 52 51 47 47 39 43 41 38 29 30 31 32 36 40 44 49
73 78 81 80 81 78 73 72 71 69 64 61 63 56 53 52 50 45 42 43 40 40 44 44 44 43 44 43 43 43 45 43 42 41 46 50 49 52 54 53 47 44 44 45 43 35 36 38 38 40 46 50 52 53
81 78 83 82 82 80 74 72 72 69 65 60 56 59 63 59 50 45 42 40 38 38 42 49 48 51 51 47 44 45 42 43 44 44 47 48 47 46 48 45 47 43 45 45 46 42 42 41 43 48 52 55 59 62
89 86 84 83 85 83 79 74 71 70 67 63 58 55 54 55 56 53 49 46 43 39 42 51 50 52 52 51 50 50 50 49 50 50 52 52 49 51 52 54 50 45 47 51 48 44 47 47 50 52 55 59 63 64
91 87 84 85 89 84 82 78 72 69 68 66 64 60 56 54 53 52 50 50 48 45 43 48 47 47 45 44 43 42 43 44 46 47 50 50 48 51 57 55 41 46 49 51 49 51 51 52 55 56 56 59 65 71
93 86 82 84 87 85 82 80 77 72 67 65 64 62 60 58 54 50 48 49 50 48 46 53 52 49 47 47 46 47 48 48 50 52 55 56 59 64 66 69 60 63 63 62 61 60 58 58 58 59 64 72 78 83
92 87 81 77 75 77 77 75 73 71 69 67 64 62 61 60 57 55 56 56 54 53 52 56 56 51 52 53 55 54 55 54 56 59 63 67 72 75 74 60 61 61 61 60 61 62 60 60 60 67 76 80 84 88
97 93 87 82 78 73 67 67 68 68 67 67 66 64 62 60 59 60 60 60 59 58 57 58 55 53 53 57 59 59 60 62 63 65 69 72 71 69 59 60 62 63 62 60 63 66 69 74 78 81 82 84 93 93
96 96 94 92 86 80 76 74 74 73 71 70 69 67 68 67 67 65 66 63 64 64 62 60 55 56 54 56 59 62 64 67 66 64 67 67 61 56 60 62 65 68 72 73 75 79 79 80 83 86 89 98 97 93
69 81 92 95 92 91 83 76 72 70 67 69 72 75 73 73 72 71 72 69 68 68 64 64 60 57 57 61 69 75 76 74 71 67 75 73 71 69 70 70 70 71 74 79 81 83 85 88 91 97 94 95 92 77
57 59 63 70 86 94 95 94 87 81 78 73 71 71 71 69 67 68 70 70 68 70 72 74 72 68 72 79 85 86 86 86 83 81 85 76 74 73 74 75 76 78 80 82 85 88 92 94 96 92 86 78 74 69
58 54 52 54 57 69 81 90 93 94 92 87 83 82 81 83 84 83 82 80 80 80 81 85 89 93 94 96 97 97 98 94 90 89 86 83 79 81 82 84 85 86 87 88 89 91 93 88 85 81 77 73 68 62
50 54 54 57 56 56 57 62 75 91 96 98 98 99 98 93 90 90 89 88 89 91 93 93 93 95 97 99 99 99 98 97 95 92 87 87 90 90 91 89 89 90 91 89 88 85 86 84 80 74 70 65 59 55
46 46 47 46 48 50 52 54 60 59 71 91 94 97 96 96 95 95 95 95 94 94 94 93 94 94 94 95 96 97 97 97 93 91 93 94 92 95 94 90 89 87 89 88 88 87 83 78 73 69 63 57 50 46
33 36 36 35 38 38 40 43 49 50 52 57 68 82 89 92 92 91 92 93 92 92 92 94 95 95 95 94 93 91 92 90 91 94 96 95 94 96 97 96 97 92 87 86 84 81 77 70 64 57 52 50 48 44
28 28 30 29 27 27 32 34 35 40 48 51 57 60 61 61 67 72 76 79 82 86 89 92 91 92 94 95 95 98 97 98 98 97 97 98 97 94 92 91 89 86 82 78 73 68 63 56 53 52 48 44 40 39
18 25 26 25 24 23 21 25 29 32 37 43 45 46 45 47 52 54 55 59 63 64 66 70 71 74 79 82 84 90 90 88 94 92 94 97 93 91 87 85 79 73 66 60 55 53 51 49 47 43 41 41 43 46
16 17 16 18 22 23 24 28 31 36 40 40 42 45 46 48 51 52 54 54 53 52 53 57 62 64 69 72 75 79 79 78 78 82 85 82 79 76 71 63 56 51 47 45 43 42 43 45 47 48 48 47 45 47
16 16 16 16 18 21 28 33 35 36 37 39 39 43 46 46 49 51 52 53 53 54 56 58 56 58 60 58 58 60 65 68 67 66 67 68 64 56 51 50 48 45 43 40 41 42 43 46 49 50 49 49 47 44
17 18 17 16 16 21 28 35 36 38 39 40 40 42 43 44 47 50 52 54 55 52 55 57 61 64 65 66 66 66 66 69 70 71 71 68 61 57 49 46 44 44 43 43 45 47 48 47 44 40 40 40 42 42
20 21 20 19 21 25 31 35 41 43 45 48 49 51 52 55 58 60 61 61 58 58 62 66 67 69 71 74 76 75 74 75 75 69 61 54 48 49 49 50 51 51 51 50 48 45 41 41 44 46 47 46 46 47
25 24 26 26 28 28 34 36 43 43 45 49 52 53 54 55 57 60 62 59 60 63 70 74 73 74 76 82 84 82 78 76 68 62 57 58 61 61 59 57 57 56 53 50 48 47 49 51 50 47 45 45 47 49
28 29 30 32 36 38 39 41 43 45 48 60 64 66 63 63 69 73 70 67 70 74 77 78 80 84 86 85 85 85 83 75 72 72 71 69 68 69 66 62 60 58 55 52 52 52 50 48 47 46 45 45 48 50
33 40 42 48 55 58 55 52 52 59 57 63 66 72 77 81 84 82 79 80 85 89 91 92 92 92 90 88 85 84 81 80 79 77 76 75 73 69 65 63 61 57 53 50 47 46 46 46 45 45 46 47 48 48
50 64 66 75 84 81 84 82 83 87 90 87 87 80 79 92 98 97 92 95 96 96 94 93 91 89 85 82 82 83 85 83 79 73 69 67 66 67 64 59 53 50 48 45 44 43 42 40 36 35 34 36 40 44
73 78 83 89 93 96 98 98 98 98 98 98 97 93 98 98 98 96 98 98 98 98 95 93 89 86 84 84 85 82 78 73 72 72 72 71 66 59 53 47 43 42 41 40 36 31 28 30 33 36 38 41 46 51
79 78 86 91 95 95 96 97 98 98 98 98 98 98 98 97 98 98 98 98 98 98 97 95 89 84 82 83 82 80 77 76 75 73 66 58 51 46 44 43 41 35 31 29 28 29 32 37 40 43 46 48 53 57
83 87 90 92 94 96 97 97 97 98 98 98 97 97 97 96 96 95 94 93 93 92 91 89 89 87 85 84 83 81 79 68 56 50 46 46 46 43 38 33 29 27 28 30 33 36 39 41 45 48 51 53 57 60
87 87 89 89 89 89 88 88 89 90 91 91 90 89 88 88 89 89 88 89 89 87 85 84 83 82 80 75 65 55 50 49 50 49 45 39 34 31 29 28 29 31 33 35 36 39 44 48 51 53 54 57 62 67
70 73 75 77 80 78 79 78 78 79 79 78 78 78 79 80 80 80 79 76 73 71 69 64 59 55 50 49 50 50 50 49 43 36 33 31 30 30 32 33 33 34 35 36 39 43 47 49 51 54 56 59 63 68
61 62 64 64 63 64 60 55 51 48 51 51 51 49 50 52 53 53 54 56 56 56 55 53 52 54 55 54 53 50 44 36 31 30 30 32 35 35 34 33 33 34 37 41 43 46 49 51 52 55 60 63 66 71
46 47 47 50 50 49 47 41 40 44 48 48 50 52 54 59 60 60 61 62 61 58 55 53 51 49 48 45 41 34 29 29 30 32 33 35 34 33 32 33 35 38 41 43 44 46 49 50 52 57 64 68 70 74